This is the latest recevied weather packets stored in our database for station/object M0SDM-10. If no packets are shown the sender has not sent any weather packets the latest 10 day(s).
| Time | Temp. | Humidity | Pressure | Rain* | Wind** | Luminosity | Snow |
|---|---|---|---|---|---|---|---|
| 1777548449 | 14.44° C | 56% | 1013.1 hPa | - | - | - | - |
| 1777546649 | 14.44° C | 60% | 1013.3 hPa | - | - | - | - |
| 1777544849 | 13.89° C | 60% | 1013.5 hPa | - | - | - | - |
| 1777543049 | 13.89° C | 62% | 1013.8 hPa | - | - | - | - |
| 1777541248 | 13.33° C | 64% | 1014.1 hPa | - | - | - | - |
| 1777539447 | 12.78° C | 64% | 1014.2 hPa | - | - | - | - |
| 1777537647 | 12.22° C | 64% | 1014.4 hPa | - | - | - | - |
| 1777535847 | 11.67° C | 65% | 1014.6 hPa | - | - | - | - |
| 1777534047 | 11.11° C | 67% | 1014.5 hPa | - | - | - | - |
| 1777532247 | 10.56° C | 67% | 1014.7 hPa | - | - | - | - |
| 1777530447 | 10.56° C | 67% | 1014.7 hPa | - | - | - | - |
| 1777528646 | 10.56° C | 67% | 1014.8 hPa | - | - | - | - |
| 1777526846 | 10.56° C | 67% | 1014.8 hPa | - | - | - | - |
| 1777525046 | 10.56° C | 66% | 1014.8 hPa | - | - | - | - |
| 1777523246 | 10.56° C | 66% | 1014.7 hPa | - | - | - | - |
| 1777521446 | 11.11° C | 66% | 1014.8 hPa | - | - | - | - |
| 1777519646 | 11.11° C | 66% | 1014.9 hPa | - | - | - | - |
| 1777517846 | 11.11° C | 65% | 1015 hPa | - | - | - | - |
| 1777516043 | 11.11° C | 65% | 1015.1 hPa | - | - | - | - |
| 1777514243 | 11.11° C | 64% | 1015.4 hPa | - | - | - | - |
| 1777512443 | 11.11° C | 63% | 1015.6 hPa | - | - | - | - |
| 1777510643 | 11.11° C | 63% | 1015.7 hPa | - | - | - | - |
| 1777508843 | 11.67° C | 62% | 1016 hPa | - | - | - | - |
| 1777507042 | 11.67° C | 61% | 1016.1 hPa | - | - | - | - |
| 1777505242 | 11.67° C | 60% | 1016.2 hPa | - | - | - | - |
* Rain since midnight (hover to see other rain measurements)
** Current wind speed in m/s (hover to see current wind gust speed)